Regional Weather Roundup
Issued by NWS

Home | Current Version | Previous Version | Graphics & Text | Print | Product List | Glossary On
Versions: 1 2 3 4 5 6 7 8 9 10 11 12 13 14 15 16 17 18 19 20 21 22 23 24 25 26 27 28 29 30 31 32 33 34 35 36 37 38 39 40 41 42 43 44 45 46 47 48 49 50
000
ASUS43 KIND 201059
RWRIN

WEATHER ROUNDUP FOR INDIANA
NATIONAL WEATHER SERVICE INDIANAPOLIS IN
700 AM EDT FRI APR 20 2018

NOTE: "FAIR" INDICATES FEW OR NO CLOUDS BELOW 12,000 FEET WITH NO
SIGNIFICANT WEATHER AND/OR OBSTRUCTIONS TO VISIBILITY.

* - STATION DOES NOT REPORT WEATHER SUCH AS PRECIPITATION OR FOG.

+ - STATION NOT QUALITY CONTROLLED BY THE NATIONAL WEATHER SERVICE.
    USE DATA WITH CAUTION...ESPECIALLY DEWPOINT AND RELATIVE
    HUMIDITY OBSERVATIONS.

INZ001>003-010>013-019-020-201200-
NORTHWEST INDIANA

CITY           SKY/WX    TMP DP  RH WIND       PRES   REMARKS
GARY /AIRPORT/ CLEAR     28  27  93 CALM      30.49R
KNOX *+        FAIR      25  23  93 CALM      30.47S
MONTICELLO +   FAIR      26  22  82 CALM      30.47R

$$

LMZ046-743>745-201200-
SOUTHERN LAKE MICHIGAN

STATION/POSITION TIME  TEMP    WIND        PRES    WAVE
                       AIR SEA DIR/SP/G            HT
                 (UTC) (F)     (DEG/KT/KT) (MB)    (FT)
BURNS HARBOR     1040   40      20/  2/  3 1032.5R
MICHIGAN CITY    1030   35     210/  2/  3   N/A

$$

INZ004-005-014>016-021>024-201200-
NORTH CENTRAL INDIANA

CITY           SKY/WX    TMP DP  RH WIND       PRES   REMARKS
ELKHART        FAIR      27  25  93 NW6       30.47  WCI  20
GOSHEN         FAIR      29  24  82 CALM      30.46R
PERU/GRISSOM   FAIR      26  26  99 CALM      30.46R
ROCHESTER +    FAIR      32  28  86 CALM      30.47R
SOUTH BEND     FAIR      25  22  88 N5        30.48R WCI  19
WARSAW +       FAIR      28  25  86 CALM      30.46R

$$

INZ006>009-017-018-025>027-201200-
NORTHEAST INDIANA

CITY           SKY/WX    TMP DP  RH WIND       PRES   REMARKS
ANGOLA *+      FAIR      32  21  64 N3        30.44R
FORT WAYNE     FAIR      30  22  72 NW5       30.46R WCI  25
KENDALLVILLE + FAIR      30  15  54 N3        30.45R

$$

INZ028-029-035-036-043>045-051>053-201200-
WEST CENTRAL INDIANA

CITY           SKY/WX    TMP DP  RH WIND       PRES   REMARKS
GREENCASTLE +  FAIR      32  21  64 N6        30.46S WCI  26
LAFAYETTE      FAIR      25  23  92 CALM      30.47R
TERRE HAUTE    FAIR      34  20  56 N3        30.47R

$$

INZ030>032-037>040-046>048-054>057-064-065-201200-
CENTRAL INDIANA

CITY           SKY/WX    TMP DP  RH WIND       PRES   REMARKS
COLUMBUS       CLEAR     32 N/A N/A N6        30.45  WCI  26
INDIANAPOLIS   FAIR      32  20  61 N5        30.45R WCI  27
-EAGLE CREEK   FAIR      32  20  61 N5        30.45R WCI  27
KOKOMO +       FAIR      28  24  85 CALM      30.47R
MT COMFORT *+  FAIR      28  25  86 N3        30.45R
SHELBYVILLE    FAIR      31  21  66 N6        30.44R WCI  25
ZIONSVILLE +   FAIR      29  22  76 N5        30.46S WCI  24

$$

INZ033-034-041-042-049-050-058-059-201200-
EAST CENTRAL INDIANA

CITY           SKY/WX    TMP DP  RH WIND       PRES   REMARKS
MUNCIE         FAIR      30  21  69 CALM      30.44R
RICHMOND +     FAIR      30  25  80 N7        30.43R WCI  23

$$

INZ060-061-067>069-081>083-085>088-201200-
SOUTHWEST INDIANA

CITY           SKY/WX    TMP DP  RH WIND       PRES   REMARKS
EVANSVILLE     FAIR      36  22  56 NE8       30.44R WCI  30
HUNTINGBURG +  FAIR      34  20  56 N7        30.44R WCI  28

$$

INZ062-063-066-070>080-084-089>092-201200-
SOUTH CENTRAL AND SOUTHEAST INDIANA

CITY           SKY/WX    TMP DP  RH WIND       PRES   REMARKS
BLOOMINGTON    FAIR      33  19  56 NE8       30.44R WCI  26
SEYMOUR +      FAIR      34  21  60 N5        30.45R WCI  30

$$





USA.gov is the U.S. government's official web portal to all federal, state and local government web resources and services.